GW3834 Weather Reports


time (UTC)temp
F
wind
direction
speed
knots
gust
knots
rain 1hr
in
rain 24hr
in
rain mn
in
humidity
%
barometer
mb
20260906224503 58 314 5.2 8.7 0.00 0.23 0.10 92 1018.2
20260906223003 58 296 5.2 7.8 0.00 0.23 0.10 91 1018.1
20260906221507 58 288 4.3 7.8 0.00 0.23 0.10 91 1018.0
20260906220001 58 295 4.3 7.0 0.00 0.23 0.10 91 1018.0
20260906214502 58 312 4.3 7.8 0.00 0.23 0.10 90 1017.9
20260906213059 58 320 4.3 7.0 0.00 0.23 0.10 90 1017.9
20260906211559 57 297 6.1 8.7 0.00 0.23 0.10 91 1017.9
20260906210106 57 293 6.1 9.6 0.00 0.23 0.10 92 1018.0
20260906204601 57 326 4.3 8.7 0.00 0.23 0.10 91 1018.1
20260906203055 57 299 6.1 9.6 0.00 0.23 0.10 91 1018.2
20260906201555 57 336 4.3 8.7 0.00 0.23 0.10 91 1018.2
20260906200054 57 310 6.1 9.6 0.00 0.23 0.10 90 1018.3
20260906194604 57 298 5.2 9.6 0.00 0.23 0.10 89 1018.4
20260906193052 58 306 6.1 11.3 0.00 0.23 0.10 88 1018.3
20260906191550 58 338 7.0 12.2 0.00 0.23 0.10 89 1018.2
20260906190050 57 321 5.2 9.6 0.00 0.23 0.10 88 1018.3
20260906184547 57 345 6.1 9.6 0.00 0.23 0.10 89 1018.5
20260906183059 56 311 4.3 7.8 0.00 0.23 0.10 90 1018.7
20260906181546 56 328 6.1 9.6 0.00 0.23 0.10 91 1018.9
20260906174537 55 319 4.3 8.7 0.00 0.23 0.10 93 1019.7
20260906173038 54 295 6.1 8.7 0.00 0.23 0.10 95 1020.1
20260906171539 54 300 6.1 8.7 0.01 0.23 0.10 95 1020.3
20260906170035 54 300 6.1 9.6 0.01 0.23 0.10 96 1020.4
20260906164534 53 302 6.1 9.6 0.02 0.23 0.10 96 1019.9
20260906163033 53 302 5.2 8.7 0.02 0.23 0.10 96 1020.1
20260906161545 53 302 6.1 10.4 0.09 0.22 0.09 97 1020.1
20260906160035 53 314 6.1 13.0 0.09 0.22 0.09 96 1020.3
20260906154531 53 300 5.2 12.2 0.08 0.21 0.08 96 1020.5
20260906153041 53 303 10.4 15.6 0.07 0.20 0.07 96 1020.3
20260906151529 53 257 5.2 14.8 0.00 0.13 0.00 94 1021.0
20260906150032 53 288 6.1 13.9 0.00 0.13 0.00 95 1020.5
20260906144530 54 285 5.2 10.4 0.00 0.20 0.00 96 1020.7
20260906143027 54 290 0.9 6.1 0.00 0.20 0.00 97 1020.2
20260906141525 54 354 3.5 5.2 0.00 0.20 0.00 96 1019.9
20260906140024 54 298 3.5 7.0 0.00 0.20 0.00 96 1020.3
20260906134524 53 302 5.2 7.0 0.00 0.21 0.00 96 1020.1
20260906133031 53 304 6.1 7.8 0.00 0.21 0.00 97 1020.2
20260906131523 53 309 4.3 8.7 0.00 0.21 0.00 97 1020.4
20260906130025 53 302 6.1 12.2 0.00 0.21 0.00 97 1020.4
20260906124523 54 300 7.8 10.4 0.00 0.21 0.00 96 1020.5
20260906123025 54 355 3.5 6.1 0.00 0.21 0.00 97 1020.5
20260906121532 54 297 2.6 5.2 0.00 0.21 0.00 97 1020.9
20260906120018 53 257 0.0 1.7 0.00 0.21 0.00 97 1020.8
20260906114528 53 319 0.9 5.2 0.00 0.21 0.00 98 1020.8
20260906113017 53 330 2.6 7.0 0.00 0.21 0.00 97 1020.5
20260906111516 53 330 5.2 8.7 0.00 0.21 0.00 97 1020.2
20260906110013 53 352 3.5 7.0 0.00 0.21 0.00 97 1020.5
20260906104512 53 330 3.5 6.1 0.00 0.21 0.00 97 1020.6
20260906103014 53 307 3.5 9.6 0.00 0.21 0.00 97 1020.7
20260906101511 53 304 5.2 9.6 0.00 0.21 0.00 97 1020.9
20260906100014 53 291 5.2 13.0 0.00 0.21 0.00 97 1020.9
20260906094507 53 18 8.7 13.9 0.00 0.21 0.00 97 1020.7
20260906093004 53 302 7.0 10.4 0.00 0.21 0.00 97 1021.4
20260906091505 53 319 5.2 10.4 0.00 0.21 0.00 97 1021.7
20260906090001 53 347 5.2 8.7 0.00 0.21 0.00 97 1021.6
20260906084601 53 336 5.2 9.6 0.00 0.21 0.00 97 1021.5
20260906083103 53 344 7.0 10.4 0.00 0.21 0.00 97 1021.5
20260906081556 53 300 7.8 11.3 0.00 0.21 0.00 97 1021.6
20260906080055 53 299 7.0 10.4 0.00 0.21 0.00 97 1021.7
20260906074553 53 321 7.0 11.3 0.00 0.21 0.00 96 1021.7
20260906073051 53 300 7.8 10.4 0.00 0.21 0.00 96 1022.2
20260906071549 53 295 4.3 8.7 0.00 0.21 0.00 95 1022.2
20260906070047 53 316 7.0 10.4 0.00 0.21 0.00 95 1022.3
20260906064546 53 296 7.0 10.4 0.00 0.21 0.00 95 1022.9
20260906063044 53 291 7.0 9.6 0.02 0.21 0.00 95 1022.8
20260906061547 53 303 7.8 11.3 0.05 0.21 0.00 95 1022.4
20260906060039 53 301 6.1 9.6 0.05 0.21 0.00 94 1022.4
20260906054542 54 309 6.1 7.8 0.05 0.21 0.21 94 1022.5
20260906053036 54 311 7.0 15.6 0.03 0.19 0.19 92 1021.9
20260906051538 53 276 3.5 7.0 0.01 0.16 0.16 93 1023.6
20260906050035 53 293 3.5 5.2 0.08 0.16 0.16 92 1022.2
20260906044535 53 314 4.3 7.0 0.08 0.16 0.16 91 1021.9
20260906043035 54 291 3.5 7.8 0.08 0.16 0.16 91 1022.0
20260906041535 54 320 11.3 15.6 0.07 0.15 0.15 89 1020.6
20260906040035 55 248 0.9 6.1 0.00 0.08 0.08 86 1023.7
20260906034550 54 268 1.7 6.1 0.00 0.08 0.08 85 1022.6
20260906033032 53 315 3.5 6.1 0.00 0.08 0.08 87 1022.0
20260906031529 53 293 2.6 6.1 0.00 0.08 0.08 86 1021.7
20260906030024 52 304 3.5 5.2 0.00 0.08 0.08 87 1021.5
20260906024522 53 303 3.5 5.2 0.00 0.08 0.08 85 1021.2
20260906023028 55 302 2.6 5.2 0.00 0.08 0.08 80 1021.2
20260906021522 56 314 1.7 6.1 0.00 0.08 0.08 79 1021.0
20260906020020 58 309 3.5 6.1 0.00 0.08 0.08 76 1021.2
20260906014520 59 323 3.5 7.0 0.00 0.08 0.08 73 1020.9
20260906013020 60 331 4.3 9.6 0.00 0.08 0.08 71 1020.7
20260906011520 60 316 6.1 10.4 0.00 0.08 0.08 71 1020.8
20260906010019 61 330 6.1 13.0 0.00 0.08 0.08 68 1020.7
20260906004518 61 304 8.7 13.9 0.00 0.08 0.08 70 1020.9
20260906003017 62 305 7.8 13.9 0.00 0.08 0.08 68 1020.9
20260906001535 63 326 7.8 13.0 0.00 0.08 0.08 68 1021.0
20260906000015 63 319 8.7 13.0 0.00 0.08 0.08 67 1021.0
20260905234514 64 308 7.8 11.3 0.00 0.08 0.08 67 1021.1
20260905233018 64 299 8.7 12.2 0.00 0.08 0.08 66 1020.9
20260905231516 64 304 8.7 13.0 0.00 0.08 0.08 66 1020.8
20260905230012 64 300 8.7 12.2 0.00 0.08 0.08 67 1020.8